Hourly Data Report for August 12, 2001

SHERBROOKE A
QUEBEC

45°26'00.000" N
71°41'00.000" W
241.40 m
7028124
71610
YSC

Download Data

Hourly Data (August 2001)
Hourly Data Report for August 12, 2001
TIME
LST
Temp Definition
°C
Dew Point Definition
°C
Rel Hum Definition
%
Precip. Amount Definition
mm

Wind Dir Definition
10's deg

Wind Spd Definition
km/h
Visibility Definition
km
Stn Press Definition
kPa
Hmdx Definition


Wind Chill Definition


Weather Definition


00:00 13.7 11.9 89   8 7 15.0 99.14      
01:00 13.4 11.6 89   8 6 15.0 99.15      
02:00 12.5 11.3 92   8 6 15.0 99.13      
03:00 12.5 11.2 92   9 6 15.0 99.13      
04:00 11.6 10.8 95   9 6 15.0 99.12      
05:00 11.9 10.9 94   8 6 15.0 99.15      
06:00 13.5 11.9 90   7 6 15.0 99.18      
07:00 16.3 13.7 85   6 4 24.1 99.18     Mainly Clear
08:00 19.4 15.7 79   5 4 24.1 99.16     Mostly Cloudy
09:00 22.2 16.7 71   13 4 24.1 99.13 27   Mostly Cloudy
10:00 25.2 17.4 62   20 11 24.1 99.12 31   Mostly Cloudy
11:00 24.3 16.5 62   17 7 24.1 99.06 29   Mostly Cloudy
12:00 26.4 16.7 55   17 9 24.1 99.00 31   Mostly Cloudy
13:00 26.9 16.9 54   21 6 24.1 98.94 32   Mostly Cloudy
14:00 27.1 16.4 52   21 11 24.1 98.89 32   Mostly Cloudy
15:00 26.6 17.4 57   14 6 24.1 98.83 32   Mostly Cloudy
16:00 26.0 18.2 62   15 6 24.1 98.80 32   Mostly Cloudy
17:00 25.6 18.2 64   13 9 15.0 98.75 32    
18:00 23.3 17.7 71   13 9 15.0 98.74 29    
19:00 22.0 15.7 67   11 7 15.0 98.66 26    
20:00 21.2 15.8 71   20 11 15.0 98.75 26    
21:00 19.8 16.3 80   14 6 15.0 98.78      
22:00 19.0 15.8 82   13 9 15.0 98.76      
23:00 17.9 15.5 86   12 7 15.0 98.75      

Notes on Data Quality.

Legend

  • E = Estimated
  • M = Missing
  • NA = Not Available*
  • [empty] = Indicates an unobserved value
Date modified: